Regional Weather Roundup
Issued by NWS

Home | Current Version | Previous Version | Graphics & Text | Print | Product List | Glossary Off
Versions: 1 2 3 4 5 6 7 8 9 10 11 12 13 14 15 16 17 18 19 20 21 22 23 24 25 26 27 28 29 30 31 32 33 34 35 36 37 38 39 40 41 42 43 44 45 46 47 48 49 50

000
ASUS43 KMKX 262011
RWRWI

WISCONSIN REGIONAL WEATHER ROUNDUP
NATIONAL WEATHER SERVICE MILWAUKEE/SULLIVAN WI
200 PM CST SUN FEB 26 2017

NOTE: "FAIR" INDICATES FEW OR NO CLOUDS BELOW 12,000 FEET WITH NO
SIGNIFICANT WEATHER AND/OR OBSTRUCTIONS TO VISIBILITY.

WIZ001-002-006>008-014>016-023>028-262100-
NORTHWEST WISCONSIN

CITY           SKY/WX    TMP DP  RH WIND       PRES   REMARKS
SUPERIOR ARPT  SUNNY     26   8  47 NW16      29.80R WCI  13
ASHLAND        PTSUNNY   28  17  63 W21G30    29.76R WCI  15
HAYWARD        CLOUDY    30  16  56 NW9G23    29.74R WCI  22
SIREN          PTSUNNY   31  14  49 NW13G21   29.78R WCI  21
CUMBERLAND     LGT SNOW  30  23  74 NW15      29.74R WCI  19
RICE LAKE      FLURRIES  34  21  59 W14G23    29.76R WCI  25
CHETEK         PTSUNNY   33  21  61 W7        29.75S WCI  27
LADYSMITH      CLOUDY    33  22  63 W13G20    29.75R WCI  24
EAU CLAIRE     SUNNY     33  22  63 W14       29.78S WCI  23
MENOMONIE      PTSUNNY   36  24  59 SW13      29.78S WCI  28
NEW RICHMOND   SUNNY     35  16  45 W20       29.77S WCI  24
OSCEOLA        CLOUDY    34  22  59 NW16      29.81R WCI  24
$$

WIZ003>005-009-010-017-018-262100-
NORTH CENTRAL WISCONSIN

CITY           SKY/WX    TMP DP  RH WIND       PRES   REMARKS
MANITOWISH WTR CLOUDY    29  23  78 W12G20    29.66R WCI  19
ARBOR VITAE    SNOW      29  25  84 W12         N/A  VSB 1/2 WCI  20
WOODRUFF       SNOW      29  25  84 W12         N/A  VSB 1/2 WCI  20
RHINELANDER    CLOUDY    31  20  63 W14       29.68R WCI  21
EAGLE RIVER    PTSUNNY   30  18  60 W18G29    29.64F WCI  18
LAND O LAKES   LGT SNOW  30  23  74 SW10G17   29.65S WCI  21
PHILLIPS       PTSUNNY   31  20  62 SW15      29.68S WCI  20
TOMAHAWK       CLOUDY    31  19  61 W12G17    29.71R WCI  22
MEDFORD        PTSUNNY   32  21  63 SW14      29.73R WCI  22
MERRILL        NOT AVBL
$$

WIZ029-030-035-036-043>047-262100-
CENTRAL WISCONSIN

CITY           SKY/WX    TMP DP  RH WIND       PRES   REMARKS
WAUSAU         CLOUDY    33  22  63 W13       29.73S WCI  24
MOSINEE        CLOUDY    34  21  60 SW17G24   29.75S WCI  23
MARSHFIELD     CLOUDY    34  19  54 W15       29.75R WCI  24
STEVENS POINT  CLOUDY    34  19  53 W14G25    29.76S WCI  25
WAUPACA        MOSUNNY   42  20  41 SW17      29.77S
WAUTOMA        MOSUNNY   40  22  48 SW18G24   29.79S WCI  31
WISC RAPIDS    CLOUDY    38  18  44 W15G28    29.78S WCI  29
CAMP DOUGLAS   PTSUNNY   39  23  52 W16G24    29.80S WCI  30
$$

WIZ011>013-019>022-031-037>040-048>050-262100-
NORTHEAST WISCONSIN

CITY           SKY/WX    TMP DP  RH WIND       PRES   REMARKS
ANTIGO         PTSUNNY   31  22  68 SW18      29.71S WCI  19
SHAWANO        CLOUDY    39  22  49 SW12G22   29.74F WCI  32
OCONTO         MOSUNNY   37  21  53 SW13G22   29.75F WCI  29
STURGEON BAY   SUNNY     35  23  61 SW15G24   29.75F WCI  25
GREEN BAY      SUNNY     38  25  59 SW13G21   29.77S WCI  30
MANITOWOC      SUNNY     38  24  57 SW17G23   29.80S WCI  28
APPLETON       MOSUNNY   37  21  52 SW16G22   29.76S WCI  28
CLINTONVILLE   PTSUNNY   37  19  48 SW16G23   29.76S WCI  28
OSHKOSH        SUNNY     37  24  59 SW15G22   29.79S WCI  28
$$

WIZ032>034-041-042-053>061-262100-
SOUTHWEST WISCONSIN

CITY           SKY/WX    TMP DP  RH WIND       PRES   REMARKS
LA CROSSE      PTSUNNY   40  25  55 SW14      29.83S WCI  32
SPARTA         MOSUNNY   40  24  54 SW15G22   29.82S WCI  31
VIROQUA        MOSUNNY   37  25  60 W14G20    29.83R WCI  28
BOSCOBEL       SUNNY     42  25  50 SW15G22   29.86F
PRAIRIE DU CHI SUNNY     42  26  53 SW12G17   29.87R
PLATTEVILLE    SUNNY     42  30  63 SW17      29.87S
$$

WIZ056-057-062-063-064-067-068-262100-
SOUTH CENTRAL WISCONSIN

CITY           SKY/WX    TMP DP  RH WIND       PRES   REMARKS
REEDSBURG      SUNNY     39  26  59 SW15      29.83S WCI  30
BARABOO/DELLS  SUNNY     38  23  55 SW15G23   29.82S WCI  30
LONE ROCK      SUNNY     41  27  57 W13       29.86S
MINERAL POINT  SUNNY     41  30  65 SW16      29.85F
MADISON        MOSUNNY   39  25  57 W10G18    29.85F WCI  32
MIDDLETON      SUNNY     41  29  61 W17       29.85F
WATERTOWN      MOSUNNY   40  28  61 SW15G21   29.84F WCI  32
MONROE         SUNNY     41  27  56 SW17      29.86F
JANESVILLE     MOSUNNY   45  25  45 SW20G25   29.88F
$$

WIZ051-052-058>065-066-070>072-262100-
SOUTHEAST WISCONSIN

CITY           SKY/WX    TMP DP  RH WIND       PRES   REMARKS
MILWAUKEE      MOSUNNY   44  23  43 SW20G32   29.87F
WAUKESHA       MOSUNNY   37  25  60 W15G25    29.86F WCI  28
MILWAUKEE/TIMM MOSUNNY   41  21  45 W20G29    29.86F
RACINE         PTSUNNY   44  23  43 SW14G32   29.89F
KENOSHA        SUNNY     44  25  47 W23G33    29.88S
FOND DU LAC    SUNNY     37  23  56 SW14G25   29.82R WCI  28
SHEBOYGAN      SUNNY     37  25  61 SW17G23   29.82S WCI  27
WEST BEND      SUNNY     37  28  70 SW16G22   29.83S WCI  28
JUNEAU         SUNNY     37  27  68 SW15G22   29.85S WCI  27
$$

LSZ147-162-262100-
LAKE SUPERIOR

STATION/POSITION TIME  TEMP    WIND        PRES    WAVE
                       AIR SEA DIR/SP/G            HT/PER
                 (UTC) (F)     (DEG/KT/KT) (MB)    (FT/S)
DEVILS ISLAND    2000   24     290/ 23/ 26 1008.4R
PORT WING        1940   25     280/ 17/ 21 1008.8R
SAXON HARBOR     1930   26     310/ 20/ 24 1006.8R
$$

LMZ867-665-643>646-262100-
LAKE MICHIGAN

STATION/POSITION TIME  TEMP    WIND        PRES    WAVE
                       AIR SEA DIR/SP/G            HT/PER
                 (UTC) (F)     (DEG/KT/KT) (MB)    (FT/S)
CHAMBERS ISLAND  1940   36     190/  8/ 16 1006.4F
NORTHPORT PIER   1940   35     220/ 12/ 21 1007.1S
SISTER BAY       1935   39     220/ 20/ 25   N/A
ALGOMA LAKESHORE 1826          240/ 20/ 29   N/A
KEWAUNEE LAKESHO 1948   37     250/ 15/ 21 1008.1F
SHEBOYGAN LAKESH 2000   38     240/ 15/ 17 1010.4F
PORT WASHINGTON  2000   42     240/ 13/ 21 1011.5
MILWAUKEE LAKESH 1950   42     240/ 20/ 24   N/A
KENOSHA   LAKESH 2000   43     240/ 17/ 27 1012.2
$$

TC  - TEMPERATURE IN CELSIUS
VSB - VISIBILITY IN STATUTE MILES
WCI - WIND CHILL INDEX
HX  - HEAT INDEX





USA.gov is the U.S. government's official web portal to all federal, state and local government web resources and services.